Time,TemperatureF,DewpointF,PressureIn,WindDirection,WindDirectionDegrees,WindSpeedMPH,WindSpeedGustMPH,Humidity,HourlyPrecipIn,Conditions,Clouds,dailyrainin,SolarRadiationWatts/m^2,SoftwareType,DateUTC
2013-05-08 00:01:00,34.0,32.0,-100.00,ESE,115,2.0,4.0,92,0.00,,,0.22,0.000000,,2013-05-08 06:01:00,
2013-05-08 00:12:00,34.0,32.0,-100.00,ESE,115,2.0,4.0,92,0.00,,,0.22,0.000000,,2013-05-08 06:12:00,
2013-05-08 00:21:00,34.0,32.0,-100.00,ESE,115,2.0,4.0,92,0.00,,,0.22,0.000000,,2013-05-08 06:21:00,
2013-05-08 00:42:00,34.0,32.0,-100.00,ESE,102,3.0,4.0,94,0.00,,,0.22,0.000000,,2013-05-08 06:42:00,
2013-05-08 00:52:00,34.0,32.0,-100.00,ESE,102,3.0,4.0,94,0.00,,,0.22,0.000000,,2013-05-08 06:52:00,
2013-05-08 01:02:00,34.0,32.0,-100.00,ESE,102,3.0,4.0,94,0.00,,,0.22,0.000000,,2013-05-08 07:02:00,
2013-05-08 01:11:00,34.0,32.0,-100.00,ESE,102,3.0,4.0,94,0.00,,,0.22,0.000000,,2013-05-08 07:11:00,
2013-05-08 01:21:00,34.0,32.0,-100.00,ESE,102,3.0,4.0,94,0.00,,,0.22,0.000000,,2013-05-08 07:21:00,
2013-05-08 01:42:00,34.0,33.0,-100.00,SW,227,1.0,3.0,96,0.00,,,0.22,0.000000,,2013-05-08 07:42:00,
2013-05-08 01:52:00,34.0,33.0,-100.00,SW,227,1.0,3.0,96,0.00,,,0.22,0.000000,,2013-05-08 07:52:00,
2013-05-08 02:01:00,34.0,33.0,-100.00,SW,227,1.0,3.0,96,0.00,,,0.22,0.000000,,2013-05-08 08:01:00,
2013-05-08 02:11:00,34.0,33.0,-100.00,SW,227,1.0,3.0,96,0.00,,,0.22,0.000000,,2013-05-08 08:11:00,
2013-05-08 02:21:00,34.0,33.0,-100.00,SW,227,1.0,3.0,96,0.00,,,0.22,0.000000,,2013-05-08 08:21:00,
2013-05-08 02:43:00,34.0,32.0,-100.00,NE,54,2.0,2.0,93,0.00,,,0.21,0.000000,,2013-05-08 08:43:00,
2013-05-08 02:52:00,34.0,32.0,-100.00,NE,54,2.0,2.0,93,0.00,,,0.21,0.000000,,2013-05-08 08:52:00,
2013-05-08 03:02:00,34.0,32.0,-100.00,NE,54,2.0,2.0,93,0.00,,,0.21,0.000000,,2013-05-08 09:02:00,
2013-05-08 03:11:00,34.0,32.0,-100.00,NE,54,2.0,2.0,93,0.00,,,0.21,0.000000,,2013-05-08 09:11:00,
2013-05-08 03:21:00,34.0,32.0,-100.00,NE,54,2.0,2.0,93,0.00,,,0.21,0.000000,,2013-05-08 09:21:00,
2013-05-08 03:22:00,33.0,32.0,-100.00,SSE,160,2.0,3.0,96,0.00,,,0.21,0.000000,,2013-05-08 09:22:00,
2013-05-08 03:42:00,33.0,32.0,-100.00,SSE,160,2.0,3.0,96,0.00,,,0.21,0.000000,,2013-05-08 09:42:00,
2013-05-08 03:53:00,33.0,32.0,-100.00,SSE,160,2.0,3.0,96,0.00,,,0.21,0.000000,,2013-05-08 09:53:00,
2013-05-08 04:02:00,33.0,32.0,-100.00,SSE,160,2.0,3.0,96,0.00,,,0.21,0.000000,,2013-05-08 10:02:00,
2013-05-08 04:12:00,33.0,32.0,-100.00,SSE,160,2.0,3.0,96,0.00,,,0.21,0.000000,,2013-05-08 10:12:00,
2013-05-08 04:22:00,35.0,32.0,-100.00,SW,216,3.0,6.0,88,0.00,,,0.21,0.000000,,2013-05-08 10:22:00,
2013-05-08 04:42:00,35.0,32.0,-100.00,SW,216,3.0,6.0,88,0.00,,,0.21,0.000000,,2013-05-08 10:42:00,
2013-05-08 04:52:00,35.0,32.0,-100.00,SW,216,3.0,6.0,88,0.00,,,0.21,0.000000,,2013-05-08 10:52:00,
2013-05-08 05:02:00,35.0,32.0,-100.00,SW,216,3.0,6.0,88,0.00,,,0.21,0.000000,,2013-05-08 11:02:00,
2013-05-08 05:11:00,35.0,32.0,-100.00,SW,216,3.0,6.0,88,0.00,,,0.21,0.000000,,2013-05-08 11:11:00,
2013-05-08 05:22:00,32.0,-99.9,-100.00,ESE,114,1.0,5.0,-999,0.00,,,0.21,0.000000,,2013-05-08 11:22:00,
2013-05-08 05:42:00,32.0,-99.9,-100.00,ESE,114,1.0,5.0,-999,0.00,,,0.21,0.000000,,2013-05-08 11:42:00,
2013-05-08 05:52:00,32.0,-99.9,-100.00,ESE,114,1.0,5.0,-999,0.00,,,0.21,0.000000,,2013-05-08 11:52:00,
2013-05-08 06:02:00,32.0,-99.9,-100.00,ESE,114,1.0,5.0,-999,0.00,,,0.21,0.000000,,2013-05-08 12:02:00,
2013-05-08 06:11:00,32.0,-99.9,-100.00,ESE,114,1.0,5.0,-999,0.00,,,0.21,0.000000,,2013-05-08 12:11:00,
2013-05-08 06:22:00,32.0,-99.9,-100.00,East,95,2.0,2.0,-999,0.00,,,0.21,0.000000,,2013-05-08 12:22:00,
2013-05-08 06:42:00,32.0,-99.9,-100.00,East,95,2.0,2.0,-999,0.00,,,0.21,0.000000,,2013-05-08 12:42:00,
2013-05-08 06:52:00,32.0,-99.9,-100.00,East,95,2.0,2.0,-999,0.00,,,0.21,0.000000,,2013-05-08 12:52:00,
2013-05-08 07:01:00,32.0,-99.9,-100.00,East,95,2.0,2.0,-999,0.00,,,0.21,0.000000,,2013-05-08 13:01:00,
2013-05-08 07:12:00,32.0,-99.9,-100.00,East,95,2.0,2.0,-999,0.00,,,0.21,0.000000,,2013-05-08 13:12:00,
2013-05-08 07:22:00,33.0,-99.9,-100.00,NW,310,0.0,2.0,-999,0.00,,,0.21,27.000000,,2013-05-08 13:22:00,
2013-05-08 07:42:00,33.0,-99.9,-100.00,NW,310,0.0,2.0,-999,0.00,,,0.21,27.000000,,2013-05-08 13:42:00,
2013-05-08 07:52:00,33.0,-99.9,-100.00,NW,310,0.0,2.0,-999,0.00,,,0.21,27.000000,,2013-05-08 13:52:00,
2013-05-08 08:02:00,33.0,-99.9,-100.00,NW,310,0.0,2.0,-999,0.00,,,0.21,27.000000,,2013-05-08 14:02:00,
2013-05-08 08:12:00,33.0,-99.9,-100.00,NW,310,0.0,2.0,-999,0.00,,,0.21,27.000000,,2013-05-08 14:12:00,
2013-05-08 08:22:00,34.0,-99.9,-100.00,WSW,252,1.0,2.0,-999,0.00,,,0.21,64.000000,,2013-05-08 14:22:00,
2013-05-08 08:42:00,34.0,-99.9,-100.00,WSW,252,1.0,2.0,-999,0.00,,,0.21,64.000000,,2013-05-08 14:42:00,
2013-05-08 08:52:00,34.0,-99.9,-100.00,WSW,252,1.0,2.0,-999,0.00,,,0.21,64.000000,,2013-05-08 14:52:00,
2013-05-08 09:02:00,34.0,-99.9,-100.00,WSW,252,1.0,2.0,-999,0.00,,,0.21,64.000000,,2013-05-08 15:02:00,
2013-05-08 09:11:00,34.0,-99.9,-100.00,WSW,252,1.0,2.0,-999,0.00,,,0.21,64.000000,,2013-05-08 15:11:00,
2013-05-08 09:22:00,34.0,30.0,-100.00,SSW,212,6.0,11.0,85,0.05,,,0.26,132.000000,,2013-05-08 15:22:00,
2013-05-08 09:42:00,34.0,30.0,-100.00,SSW,212,6.0,11.0,85,0.05,,,0.26,132.000000,,2013-05-08 15:42:00,
2013-05-08 09:53:00,34.0,30.0,-100.00,SSW,212,6.0,11.0,85,0.05,,,0.26,132.000000,,2013-05-08 15:53:00,
2013-05-08 10:03:00,34.0,30.0,-100.00,SSW,212,6.0,11.0,85,0.05,,,0.26,132.000000,,2013-05-08 16:03:00,
2013-05-08 10:12:00,34.0,30.0,-100.00,SSW,212,6.0,11.0,85,0.05,,,0.26,132.000000,,2013-05-08 16:12:00,
2013-05-08 10:22:00,35.0,29.0,-100.00,SSE,156,3.0,13.0,79,0.00,,,0.26,136.000000,,2013-05-08 16:22:00,
2013-05-08 10:42:00,35.0,29.0,-100.00,SSE,156,3.0,13.0,79,0.00,,,0.26,136.000000,,2013-05-08 16:42:00,
2013-05-08 10:52:00,35.0,29.0,-100.00,SSE,156,3.0,13.0,79,0.00,,,0.26,136.000000,,2013-05-08 16:52:00,
2013-05-08 11:02:00,35.0,29.0,-100.00,SSE,156,3.0,13.0,79,0.00,,,0.26,136.000000,,2013-05-08 17:02:00,
2013-05-08 11:12:00,35.0,29.0,-100.00,SSE,156,3.0,13.0,79,0.00,,,0.26,136.000000,,2013-05-08 17:12:00,
2013-05-08 11:52:00,39.0,31.0,-100.00,NE,48,5.0,8.0,74,0.02,,,-99.99,469.000000,,2013-05-08 17:52:00,
2013-05-08 12:02:00,39.0,31.0,-100.00,NE,48,5.0,8.0,74,0.02,,,-99.99,469.000000,,2013-05-08 18:02:00,
2013-05-08 12:11:00,39.0,31.0,-100.00,NE,48,5.0,8.0,74,0.02,,,-99.99,469.000000,,2013-05-08 18:11:00,
2013-05-08 12:21:00,39.0,31.0,-100.00,NE,48,5.0,8.0,74,0.02,,,-99.99,469.000000,,2013-05-08 18:21:00,
2013-05-08 12:42:00,43.0,30.0,-100.00,NE,43,3.0,6.0,59,0.00,,,0.09,758.000000,,2013-05-08 18:42:00,
2013-05-08 12:52:00,43.0,30.0,-100.00,NE,43,3.0,6.0,59,0.00,,,0.09,758.000000,,2013-05-08 18:52:00,
2013-05-08 13:01:00,43.0,30.0,-100.00,NE,43,3.0,6.0,59,0.00,,,0.09,758.000000,,2013-05-08 19:01:00,
2013-05-08 13:11:00,43.0,30.0,-100.00,NE,43,3.0,6.0,59,0.00,,,0.09,758.000000,,2013-05-08 19:11:00,
2013-05-08 13:21:00,43.0,30.0,-100.00,NE,43,3.0,6.0,59,0.00,,,0.09,758.000000,,2013-05-08 19:21:00,
2013-05-08 13:22:00,45.0,29.0,-100.00,North,357,3.0,6.0,53,0.00,,,0.09,814.000000,,2013-05-08 19:22:00,
2013-05-08 13:42:00,45.0,29.0,-100.00,North,357,3.0,6.0,53,0.00,,,0.09,814.000000,,2013-05-08 19:42:00,
2013-05-08 13:52:00,45.0,29.0,-100.00,North,357,3.0,6.0,53,0.00,,,0.09,814.000000,,2013-05-08 19:52:00,
2013-05-08 14:02:00,45.0,29.0,-100.00,North,357,3.0,6.0,53,0.00,,,0.09,814.000000,,2013-05-08 20:02:00,
2013-05-08 14:11:00,45.0,29.0,-100.00,North,357,3.0,6.0,53,0.00,,,0.09,814.000000,,2013-05-08 20:11:00,
2013-05-08 14:42:00,38.0,32.0,-100.00,West,260,7.0,9.0,79,0.00,,,0.09,215.000000,,2013-05-08 20:42:00,
2013-05-08 14:52:00,38.0,32.0,-100.00,West,260,7.0,9.0,79,0.00,,,0.09,215.000000,,2013-05-08 20:52:00,
2013-05-08 15:01:00,38.0,32.0,-100.00,West,260,7.0,9.0,79,0.00,,,0.09,215.000000,,2013-05-08 21:01:00,
2013-05-08 15:12:00,38.0,32.0,-100.00,West,260,7.0,9.0,79,0.00,,,0.09,215.000000,,2013-05-08 21:12:00,
2013-05-08 15:21:00,38.0,32.0,-100.00,West,260,7.0,9.0,79,0.00,,,0.09,215.000000,,2013-05-08 21:21:00,
2013-05-08 15:22:00,36.0,32.0,-100.00,West,280,6.0,11.0,85,0.00,,,0.08,265.000000,,2013-05-08 21:22:00,
2013-05-08 15:43:00,36.0,32.0,-100.00,West,280,6.0,11.0,85,0.00,,,0.08,265.000000,,2013-05-08 21:43:00,
2013-05-08 15:53:00,36.0,32.0,-100.00,West,280,6.0,11.0,85,0.00,,,0.08,265.000000,,2013-05-08 21:53:00,
2013-05-08 16:03:00,36.0,32.0,-100.00,West,280,6.0,11.0,85,0.00,,,0.08,265.000000,,2013-05-08 22:03:00,
2013-05-08 16:12:00,36.0,32.0,-100.00,West,280,6.0,11.0,85,0.00,,,0.08,265.000000,,2013-05-08 22:12:00,
2013-05-08 16:22:00,35.0,32.0,-100.00,North,352,3.0,8.0,89,0.00,,,0.08,214.000000,,2013-05-08 22:22:00,
2013-05-08 16:42:00,35.0,32.0,-100.00,North,352,3.0,8.0,89,0.00,,,0.08,214.000000,,2013-05-08 22:42:00,
2013-05-08 16:53:00,35.0,32.0,-100.00,North,352,3.0,8.0,89,0.00,,,0.08,214.000000,,2013-05-08 22:53:00,
2013-05-08 17:01:00,35.0,32.0,-100.00,North,352,3.0,8.0,89,0.00,,,0.08,214.000000,,2013-05-08 23:01:00,
2013-05-08 17:11:00,35.0,32.0,-100.00,North,352,3.0,8.0,89,0.00,,,0.08,214.000000,,2013-05-08 23:11:00,
2013-05-08 17:42:00,37.0,33.0,-100.00,East,82,2.0,5.0,85,0.00,,,0.08,191.000000,,2013-05-08 23:42:00,
2013-05-08 17:52:00,37.0,33.0,-100.00,East,82,2.0,5.0,85,0.00,,,0.08,191.000000,,2013-05-08 23:52:00,
2013-05-08 18:02:00,37.0,33.0,-100.00,East,82,2.0,5.0,85,0.00,,,0.08,191.000000,,2013-05-09 00:02:00,
2013-05-08 18:12:00,37.0,33.0,-100.00,East,82,2.0,5.0,85,0.00,,,0.08,191.000000,,2013-05-09 00:12:00,
2013-05-08 18:21:00,37.0,33.0,-100.00,East,82,2.0,5.0,85,0.00,,,0.08,191.000000,,2013-05-09 00:21:00,
2013-05-08 18:22:00,38.0,32.0,-100.00,ESE,104,2.0,5.0,79,0.00,,,0.08,204.000000,,2013-05-09 00:22:00,
2013-05-08 18:42:00,38.0,32.0,-100.00,ESE,104,2.0,5.0,79,0.00,,,0.08,204.000000,,2013-05-09 00:42:00,
2013-05-08 18:52:00,38.0,32.0,-100.00,ESE,104,2.0,5.0,79,0.00,,,0.08,204.000000,,2013-05-09 00:52:00,
2013-05-08 19:01:00,38.0,32.0,-100.00,ESE,104,2.0,5.0,79,0.00,,,0.08,204.000000,,2013-05-09 01:01:00,
2013-05-08 19:11:00,38.0,32.0,-100.00,ESE,104,2.0,5.0,79,0.00,,,0.08,204.000000,,2013-05-09 01:11:00,
2013-05-08 19:42:00,34.0,30.0,-100.00,NNW,345,4.0,7.0,86,0.00,,,0.07,74.000000,,2013-05-09 01:42:00,
2013-05-08 19:52:00,34.0,30.0,-100.00,NNW,345,4.0,7.0,86,0.00,,,0.07,74.000000,,2013-05-09 01:52:00,
2013-05-08 20:02:00,34.0,30.0,-100.00,NNW,345,4.0,7.0,86,0.00,,,0.07,74.000000,,2013-05-09 02:02:00,
2013-05-08 20:11:00,34.0,30.0,-100.00,NNW,345,4.0,7.0,86,0.00,,,0.07,74.000000,,2013-05-09 02:11:00,
2013-05-08 20:21:00,34.0,30.0,-100.00,NNW,345,4.0,7.0,86,0.00,,,0.07,74.000000,,2013-05-09 02:21:00,
2013-05-08 20:22:00,33.0,-99.9,-100.00,WSW,255,2.0,4.0,-999,0.00,,,0.07,5.000000,,2013-05-09 02:22:00,
2013-05-08 21:02:00,33.0,-99.9,-100.00,WSW,255,2.0,4.0,-999,0.00,,,0.07,5.000000,,2013-05-09 03:02:00,
2013-05-08 21:11:00,33.0,-99.9,-100.00,WSW,255,2.0,4.0,-999,0.00,,,0.07,5.000000,,2013-05-09 03:11:00,
2013-05-08 21:22:00,32.0,-99.9,-100.00,WNW,303,1.0,2.0,-999,0.00,,,0.07,0.000000,,2013-05-09 03:22:00,
2013-05-08 21:43:00,32.0,-99.9,-100.00,WNW,303,1.0,2.0,-999,0.00,,,0.07,0.000000,,2013-05-09 03:43:00,
2013-05-08 21:53:00,32.0,-99.9,-100.00,WNW,303,1.0,2.0,-999,0.00,,,0.07,0.000000,,2013-05-09 03:53:00,
2013-05-08 22:03:00,32.0,-99.9,-100.00,WNW,303,1.0,2.0,-999,0.00,,,0.07,0.000000,,2013-05-09 04:03:00,
2013-05-08 22:13:00,32.0,-99.9,-100.00,WNW,303,1.0,2.0,-999,0.00,,,0.07,0.000000,,2013-05-09 04:13:00,
2013-05-08 22:22:00,32.0,-99.9,-100.00,SSW,207,1.0,3.0,-999,0.00,,,0.07,0.000000,,2013-05-09 04:22:00,
2013-05-08 22:43:00,32.0,-99.9,-100.00,SSW,207,1.0,3.0,-999,0.00,,,0.07,0.000000,,2013-05-09 04:43:00,
2013-05-08 22:53:00,32.0,-99.9,-100.00,SSW,207,1.0,3.0,-999,0.00,,,0.07,0.000000,,2013-05-09 04:53:00,
2013-05-08 23:02:00,32.0,-99.9,-100.00,SSW,207,1.0,3.0,-999,0.00,,,0.07,0.000000,,2013-05-09 05:02:00,
2013-05-08 23:12:00,32.0,-99.9,-100.00,SSW,207,1.0,3.0,-999,0.00,,,0.07,0.000000,,2013-05-09 05:12:00,
2013-05-08 23:22:00,31.0,-99.9,-100.00,WSW,240,1.0,2.0,-999,0.00,,,0.07,0.000000,,2013-05-09 05:22:00,
2013-05-08 23:43:00,31.0,-99.9,-100.00,WSW,240,1.0,2.0,-999,0.00,,,0.07,0.000000,,2013-05-09 05:43:00,
2013-05-08 23:52:00,31.0,-99.9,-100.00,WSW,240,1.0,2.0,-999,0.00,,,0.07,0.000000,,2013-05-09 05:52:00,